Time,TemperatureF,DewpointF,PressureIn,WindDirection,WindDirectionDegrees,WindSpeedMPH,WindSpeedGustMPH,Humidity,HourlyPrecipIn,Conditions,Clouds,dailyrainin,SoftwareType,DateUTC
2013-01-08 00:01:00,41.0,29.0,29.87,East,82,0.0,0.0,62,0.00,,,0.00,,2013-01-08 07:01:00,
2013-01-08 00:11:00,41.0,29.0,29.87,East,82,0.0,0.0,62,0.00,,,0.00,,2013-01-08 07:11:00,
2013-01-08 00:22:00,40.0,28.0,29.87,East,82,0.0,0.0,63,0.00,,,0.00,,2013-01-08 07:22:00,
2013-01-08 00:32:00,40.0,28.0,29.87,East,82,0.0,0.0,63,0.00,,,0.00,,2013-01-08 07:32:00,
2013-01-08 00:42:00,40.0,28.0,29.87,East,82,0.0,0.0,63,0.00,,,0.00,,2013-01-08 07:42:00,
2013-01-08 00:52:00,40.0,29.0,29.89,East,82,0.0,2.0,65,0.00,,,0.00,,2013-01-08 07:52:00,
2013-01-08 01:01:00,40.0,29.0,29.88,East,82,1.0,5.0,64,0.00,,,0.00,,2013-01-08 08:01:00,
2013-01-08 01:11:00,40.0,29.0,29.88,East,82,1.0,5.0,64,0.00,,,0.00,,2013-01-08 08:11:00,
2013-01-08 01:22:00,39.0,28.0,29.88,East,82,0.0,0.0,64,0.00,,,0.00,,2013-01-08 08:22:00,
2013-01-08 01:32:00,39.0,28.0,29.88,East,82,0.0,0.0,64,0.00,,,0.00,,2013-01-08 08:32:00,
2013-01-08 01:42:00,39.0,28.0,29.88,East,82,0.0,0.0,64,0.00,,,0.00,,2013-01-08 08:42:00,
2013-01-08 01:52:00,39.0,28.0,29.90,East,82,2.0,5.0,64,0.00,,,0.00,,2013-01-08 08:52:00,
2013-01-08 02:02:00,39.0,28.0,29.89,East,84,2.0,6.0,64,0.00,,,0.00,,2013-01-08 09:02:00,
2013-01-08 02:11:00,39.0,28.0,29.89,East,84,2.0,5.0,64,0.00,,,0.00,,2013-01-08 09:11:00,
2013-01-08 02:22:00,39.0,28.0,29.89,East,84,2.0,5.0,64,0.00,,,0.00,,2013-01-08 09:22:00,
2013-01-08 02:32:00,39.0,27.0,29.89,East,84,0.0,5.0,63,0.00,,,0.00,,2013-01-08 09:32:00,
2013-01-08 02:42:00,39.0,27.0,29.89,East,84,0.0,5.0,63,0.00,,,0.00,,2013-01-08 09:42:00,
2013-01-08 02:52:00,39.0,27.0,29.89,East,84,0.0,0.0,63,0.00,,,0.00,,2013-01-08 09:52:00,
2013-01-08 03:02:00,39.0,27.0,29.90,East,84,0.0,0.0,63,0.00,,,0.00,,2013-01-08 10:02:00,
2013-01-08 03:11:00,39.0,27.0,29.90,East,84,0.0,0.0,63,0.00,,,0.00,,2013-01-08 10:11:00,
2013-01-08 03:22:00,39.0,27.0,29.90,East,84,1.0,3.0,63,0.00,,,0.00,,2013-01-08 10:22:00,
2013-01-08 03:32:00,39.0,27.0,29.90,East,84,0.0,0.0,63,0.00,,,0.00,,2013-01-08 10:32:00,
2013-01-08 03:42:00,39.0,27.0,29.90,East,84,0.0,0.0,63,0.00,,,0.00,,2013-01-08 10:42:00,
2013-01-08 03:52:00,39.0,28.0,29.90,East,84,0.0,0.0,64,0.00,,,0.00,,2013-01-08 10:52:00,
2013-01-08 04:02:00,39.0,27.0,29.90,East,84,0.0,0.0,63,0.00,,,0.00,,2013-01-08 11:02:00,
2013-01-08 04:11:00,39.0,27.0,29.90,East,84,0.0,0.0,63,0.00,,,0.00,,2013-01-08 11:11:00,
2013-01-08 04:22:00,39.0,27.0,29.90,East,84,2.0,5.0,63,0.00,,,0.00,,2013-01-08 11:22:00,
2013-01-08 04:32:00,39.0,27.0,29.89,East,84,0.0,6.0,63,0.00,,,0.00,,2013-01-08 11:32:00,
2013-01-08 04:42:00,39.0,27.0,29.89,East,84,0.0,6.0,63,0.00,,,0.00,,2013-01-08 11:42:00,
2013-01-08 04:53:00,39.0,28.0,29.90,East,84,0.0,0.0,64,0.00,,,0.00,,2013-01-08 11:53:00,
2013-01-08 05:02:00,38.0,27.0,29.89,East,84,0.0,0.0,65,0.00,,,0.00,,2013-01-08 12:02:00,
2013-01-08 05:11:00,38.0,27.0,29.89,East,84,0.0,0.0,65,0.00,,,0.00,,2013-01-08 12:11:00,
2013-01-08 05:22:00,37.0,28.0,29.89,East,84,0.0,0.0,69,0.00,,,0.00,,2013-01-08 12:22:00,
2013-01-08 05:32:00,37.0,28.0,29.88,East,84,0.0,0.0,69,0.00,,,0.00,,2013-01-08 12:32:00,
2013-01-08 05:42:00,37.0,28.0,29.88,East,84,0.0,0.0,69,0.00,,,0.00,,2013-01-08 12:42:00,
2013-01-08 05:53:00,37.0,28.0,29.88,East,84,0.0,0.0,70,0.00,,,0.00,,2013-01-08 12:53:00,
2013-01-08 06:02:00,36.0,28.0,29.89,East,84,0.0,0.0,71,0.00,,,0.00,,2013-01-08 13:02:00,
2013-01-08 06:12:00,36.0,28.0,29.89,East,84,0.0,0.0,71,0.00,,,0.00,,2013-01-08 13:12:00,
2013-01-08 06:22:00,36.0,28.0,29.91,East,84,0.0,0.0,72,0.00,,,0.00,,2013-01-08 13:22:00,
2013-01-08 06:32:00,36.0,28.0,29.91,East,84,0.0,0.0,72,0.00,,,0.00,,2013-01-08 13:32:00,
2013-01-08 06:42:00,36.0,28.0,29.91,East,84,0.0,0.0,72,0.00,,,0.00,,2013-01-08 13:42:00,
2013-01-08 06:52:00,36.0,28.0,29.92,East,84,0.0,0.0,71,0.00,,,0.00,,2013-01-08 13:52:00,
2013-01-08 07:02:00,35.0,27.0,29.92,East,84,0.0,0.0,72,0.00,,,0.00,,2013-01-08 14:02:00,
2013-01-08 07:12:00,35.0,27.0,29.92,East,84,0.0,0.0,72,0.00,,,0.00,,2013-01-08 14:12:00,
2013-01-08 07:22:00,35.0,28.0,29.93,East,84,0.0,0.0,74,0.00,,,0.00,,2013-01-08 14:22:00,
2013-01-08 07:32:00,34.0,27.0,29.93,East,84,0.0,0.0,75,0.00,,,0.00,,2013-01-08 14:32:00,
2013-01-08 07:42:00,34.0,27.0,29.93,East,84,0.0,0.0,75,0.00,,,0.00,,2013-01-08 14:42:00,
2013-01-08 07:53:00,34.0,27.0,29.95,East,84,2.0,3.0,75,0.00,,,0.00,,2013-01-08 14:53:00,
2013-01-08 08:02:00,34.0,27.0,29.96,East,84,3.0,5.0,74,0.00,,,0.00,,2013-01-08 15:02:00,
2013-01-08 08:11:00,34.0,27.0,29.96,East,84,3.0,5.0,74,0.00,,,0.00,,2013-01-08 15:11:00,
2013-01-08 08:22:00,35.0,28.0,29.97,East,84,0.0,5.0,74,0.00,,,0.00,,2013-01-08 15:22:00,
2013-01-08 08:32:00,36.0,28.0,29.98,East,84,0.0,0.0,73,0.00,,,0.00,,2013-01-08 15:32:00,
2013-01-08 08:42:00,36.0,28.0,29.98,East,84,0.0,0.0,73,0.00,,,0.00,,2013-01-08 15:42:00,
2013-01-08 08:53:00,39.0,29.0,29.99,East,84,0.0,0.0,67,0.00,,,0.00,,2013-01-08 15:53:00,
2013-01-08 09:02:00,40.0,30.0,30.00,East,84,1.0,5.0,66,0.00,,,0.00,,2013-01-08 16:02:00,
2013-01-08 09:12:00,40.0,30.0,30.00,East,84,1.0,5.0,66,0.00,,,0.00,,2013-01-08 16:12:00,
2013-01-08 09:22:00,41.0,29.0,30.01,East,84,2.0,5.0,61,0.00,,,0.00,,2013-01-08 16:22:00,
2013-01-08 09:32:00,41.0,29.0,30.01,East,84,0.0,5.0,61,0.00,,,0.00,,2013-01-08 16:32:00,
2013-01-08 09:42:00,41.0,29.0,30.01,East,84,0.0,5.0,61,0.00,,,0.00,,2013-01-08 16:42:00,
2013-01-08 09:52:00,43.0,30.0,30.01,East,97,3.0,7.0,59,0.00,,,0.00,,2013-01-08 16:52:00,
2013-01-08 10:02:00,44.0,30.0,30.01,East,100,5.0,8.0,57,0.00,,,0.00,,2013-01-08 17:02:00,
2013-01-08 10:12:00,44.0,30.0,30.01,East,100,5.0,8.0,57,0.00,,,0.00,,2013-01-08 17:12:00,
2013-01-08 10:22:00,46.0,29.0,30.02,ESE,114,2.0,8.0,51,0.00,,,0.00,,2013-01-08 17:22:00,
2013-01-08 10:32:00,47.0,29.0,30.02,ESE,114,2.0,4.0,50,0.00,,,0.00,,2013-01-08 17:32:00,
2013-01-08 10:42:00,47.0,29.0,30.02,ESE,114,2.0,4.0,50,0.00,,,0.00,,2013-01-08 17:42:00,
2013-01-08 10:53:00,48.0,29.0,30.03,ESE,114,0.0,4.0,48,0.00,,,0.00,,2013-01-08 17:53:00,
2013-01-08 11:02:00,49.0,29.0,30.03,ESE,118,0.0,4.0,46,0.00,,,0.00,,2013-01-08 18:02:00,
2013-01-08 11:12:00,49.0,29.0,30.03,ESE,118,0.0,4.0,46,0.00,,,0.00,,2013-01-08 18:12:00,
2013-01-08 11:22:00,51.0,30.0,30.03,ESE,119,0.0,1.0,44,0.00,,,0.00,,2013-01-08 18:22:00,
2013-01-08 11:32:00,51.0,29.0,30.03,SE,130,1.0,7.0,43,0.00,,,0.00,,2013-01-08 18:32:00,
2013-01-08 11:42:00,51.0,29.0,30.03,SE,130,1.0,7.0,43,0.00,,,0.00,,2013-01-08 18:42:00,
2013-01-08 11:53:00,52.0,30.0,30.02,SSE,150,1.0,6.0,42,0.00,,,0.00,,2013-01-08 18:53:00,
2013-01-08 12:02:00,52.0,30.0,30.02,SSE,151,0.0,4.0,42,0.00,,,0.00,,2013-01-08 19:02:00,
2013-01-08 12:11:00,52.0,30.0,30.02,SSE,151,0.0,4.0,42,0.00,,,0.00,,2013-01-08 19:11:00,
2013-01-08 12:22:00,53.0,29.0,30.01,SSE,151,0.0,3.0,40,0.00,,,0.00,,2013-01-08 19:22:00,
2013-01-08 12:32:00,54.0,30.0,30.01,SSE,151,0.0,2.0,40,0.00,,,0.00,,2013-01-08 19:32:00,
2013-01-08 12:42:00,54.0,30.0,30.01,SSE,151,0.0,2.0,40,0.00,,,0.00,,2013-01-08 19:42:00,
2013-01-08 12:53:00,55.0,31.0,30.01,SSE,150,0.0,6.0,39,0.00,,,0.00,,2013-01-08 19:53:00,
2013-01-08 13:02:00,56.0,30.0,29.99,SSE,150,1.0,5.0,37,0.00,,,0.00,,2013-01-08 20:02:00,
2013-01-08 13:11:00,56.0,30.0,29.99,SSE,150,1.0,5.0,37,0.00,,,0.00,,2013-01-08 20:11:00,
2013-01-08 13:22:00,56.0,30.0,29.99,SE,144,0.0,5.0,37,0.00,,,0.00,,2013-01-08 20:22:00,
2013-01-08 13:32:00,57.0,30.0,29.99,SE,144,0.0,4.0,35,0.00,,,0.00,,2013-01-08 20:32:00,
2013-01-08 13:42:00,57.0,30.0,29.99,SE,144,0.0,4.0,35,0.00,,,0.00,,2013-01-08 20:42:00,
2013-01-08 13:53:00,57.0,29.0,29.98,SSE,149,0.0,4.0,34,0.00,,,0.00,,2013-01-08 20:53:00,
2013-01-08 14:02:00,57.0,29.0,29.98,SSE,149,0.0,4.0,34,0.00,,,0.00,,2013-01-08 21:02:00,
2013-01-08 14:12:00,57.0,29.0,29.98,SSE,149,0.0,4.0,34,0.00,,,0.00,,2013-01-08 21:12:00,
2013-01-08 14:22:00,58.0,28.0,29.98,SSE,158,0.0,5.0,32,0.00,,,0.00,,2013-01-08 21:22:00,
2013-01-08 14:32:00,59.0,30.0,29.98,South,181,1.0,7.0,33,0.00,,,0.00,,2013-01-08 21:32:00,
2013-01-08 14:43:00,59.0,30.0,29.98,South,181,1.0,7.0,33,0.00,,,0.00,,2013-01-08 21:43:00,
2013-01-08 14:53:00,59.0,29.0,29.98,South,183,0.0,6.0,32,0.00,,,0.00,,2013-01-08 21:53:00,
2013-01-08 15:02:00,59.0,30.0,29.98,South,184,0.0,0.0,33,0.00,,,0.00,,2013-01-08 22:02:00,
2013-01-08 15:12:00,59.0,30.0,29.98,South,184,0.0,0.0,33,0.00,,,0.00,,2013-01-08 22:12:00,
2013-01-08 15:22:00,59.0,30.0,29.98,South,182,1.0,5.0,33,0.00,,,0.00,,2013-01-08 22:22:00,
2013-01-08 15:32:00,58.0,29.0,29.98,South,182,2.0,5.0,33,0.00,,,0.00,,2013-01-08 22:32:00,
2013-01-08 15:42:00,58.0,29.0,29.98,South,182,2.0,5.0,33,0.00,,,0.00,,2013-01-08 22:42:00,
2013-01-08 15:53:00,59.0,29.0,29.98,South,182,0.0,5.0,32,0.00,,,0.00,,2013-01-08 22:53:00,
2013-01-08 16:02:00,59.0,29.0,29.98,South,182,0.0,0.0,32,0.00,,,0.00,,2013-01-08 23:02:00,
2013-01-08 16:12:00,59.0,29.0,29.98,South,182,0.0,0.0,32,0.00,,,0.00,,2013-01-08 23:12:00,
2013-01-08 16:22:00,60.0,29.0,29.99,South,182,0.0,6.0,31,0.00,,,0.00,,2013-01-08 23:22:00,
2013-01-08 16:32:00,60.0,29.0,29.98,South,182,0.0,1.0,31,0.00,,,0.00,,2013-01-08 23:32:00,
2013-01-08 16:42:00,60.0,29.0,29.98,South,182,0.0,1.0,31,0.00,,,0.00,,2013-01-08 23:42:00,
2013-01-08 16:52:00,60.0,28.0,29.98,South,184,0.0,6.0,30,0.00,,,0.00,,2013-01-08 23:52:00,
2013-01-08 17:02:00,60.0,28.0,29.98,South,185,0.0,5.0,30,0.00,,,0.00,,2013-01-09 00:02:00,
2013-01-08 17:12:00,60.0,28.0,29.98,South,185,0.0,5.0,30,0.00,,,0.00,,2013-01-09 00:12:00,
2013-01-08 17:22:00,60.0,26.0,29.99,South,185,0.0,3.0,27,0.00,,,0.00,,2013-01-09 00:22:00,
2013-01-08 17:32:00,59.0,26.0,29.99,South,185,0.0,1.0,28,0.00,,,0.00,,2013-01-09 00:32:00,
2013-01-08 17:42:00,59.0,26.0,29.99,South,185,0.0,1.0,28,0.00,,,0.00,,2013-01-09 00:42:00,
2013-01-08 17:52:00,58.0,27.0,29.98,South,185,0.0,0.0,30,0.00,,,0.00,,2013-01-09 00:52:00,
2013-01-08 18:02:00,57.0,27.0,29.98,South,186,0.0,4.0,31,0.00,,,0.00,,2013-01-09 01:02:00,
2013-01-08 18:11:00,57.0,27.0,29.98,South,186,0.0,4.0,31,0.00,,,0.00,,2013-01-09 01:11:00,
2013-01-08 18:22:00,55.0,26.0,29.99,South,188,0.0,0.0,33,0.00,,,0.00,,2013-01-09 01:22:00,
2013-01-08 18:32:00,54.0,25.0,29.99,South,188,0.0,4.0,32,0.00,,,0.00,,2013-01-09 01:32:00,
2013-01-08 18:42:00,54.0,25.0,29.99,South,188,0.0,4.0,32,0.00,,,0.00,,2013-01-09 01:42:00,
2013-01-08 18:52:00,53.0,25.0,30.00,South,190,0.0,5.0,34,0.00,,,0.00,,2013-01-09 01:52:00,
2013-01-08 19:02:00,53.0,25.0,30.01,SSW,192,2.0,6.0,34,0.00,,,0.00,,2013-01-09 02:02:00,
2013-01-08 19:11:00,53.0,25.0,30.01,SSW,192,2.0,6.0,34,0.00,,,0.00,,2013-01-09 02:11:00,
2013-01-08 19:22:00,52.0,25.0,30.02,SW,215,1.0,8.0,35,0.00,,,0.00,,2013-01-09 02:22:00,
2013-01-08 19:32:00,52.0,25.0,30.02,West,259,5.0,11.0,34,0.00,,,0.00,,2013-01-09 02:32:00,
2013-01-08 19:42:00,52.0,25.0,30.02,West,259,5.0,11.0,34,0.00,,,0.00,,2013-01-09 02:42:00,
2013-01-08 19:52:00,51.0,25.0,30.02,WNW,283,5.0,10.0,36,0.00,,,0.00,,2013-01-09 02:52:00,
2013-01-08 20:02:00,51.0,25.0,30.02,WNW,287,0.0,9.0,36,0.00,,,0.00,,2013-01-09 03:02:00,
2013-01-08 20:11:00,51.0,25.0,30.02,WNW,287,0.0,9.0,36,0.00,,,0.00,,2013-01-09 03:11:00,
2013-01-08 20:22:00,50.0,26.0,30.02,WNW,288,0.0,0.0,39,0.00,,,0.00,,2013-01-09 03:22:00,
2013-01-08 20:32:00,50.0,27.0,30.03,WNW,288,0.0,0.0,40,0.00,,,0.00,,2013-01-09 03:32:00,
2013-01-08 20:42:00,50.0,27.0,30.03,WNW,288,0.0,0.0,40,0.00,,,0.00,,2013-01-09 03:42:00,
2013-01-08 20:52:00,48.0,27.0,30.03,WNW,288,0.0,0.0,43,0.00,,,0.00,,2013-01-09 03:52:00,
2013-01-08 21:01:00,47.0,26.0,30.04,WNW,288,0.0,0.0,43,0.00,,,0.00,,2013-01-09 04:01:00,
2013-01-08 21:11:00,47.0,26.0,30.04,WNW,288,0.0,0.0,43,0.00,,,0.00,,2013-01-09 04:11:00,
2013-01-08 21:22:00,47.0,27.0,30.04,WNW,288,0.0,0.0,45,0.00,,,0.00,,2013-01-09 04:22:00,
2013-01-08 21:32:00,47.0,27.0,30.04,WNW,291,0.0,5.0,46,0.00,,,0.00,,2013-01-09 04:32:00,
2013-01-08 21:42:00,48.0,28.0,30.05,WNW,291,0.0,0.0,46,0.00,,,0.00,,2013-01-09 04:42:00,
2013-01-08 21:52:00,48.0,28.0,30.05,WNW,291,0.0,0.0,46,0.00,,,0.00,,2013-01-09 04:52:00,
2013-01-08 22:03:00,47.0,28.0,30.06,WNW,291,0.0,0.0,48,0.00,,,0.00,,2013-01-09 05:03:00,
2013-01-08 22:12:00,47.0,28.0,30.06,WNW,291,0.0,0.0,48,0.00,,,0.00,,2013-01-09 05:12:00,
2013-01-08 22:22:00,46.0,28.0,30.06,WNW,291,0.0,0.0,49,0.00,,,0.00,,2013-01-09 05:22:00,
2013-01-08 22:33:00,46.0,28.0,30.06,WNW,291,0.0,0.0,50,0.00,,,0.00,,2013-01-09 05:33:00,
2013-01-08 22:42:00,46.0,28.0,30.06,WNW,291,0.0,0.0,50,0.00,,,0.00,,2013-01-09 05:42:00,
2013-01-08 22:52:00,45.0,27.0,30.06,WNW,291,0.0,0.0,50,0.00,,,0.00,,2013-01-09 05:52:00,
2013-01-08 23:02:00,45.0,27.0,30.06,WNW,293,3.0,8.0,49,0.00,,,0.00,,2013-01-09 06:02:00,
2013-01-08 23:11:00,45.0,27.0,30.06,WNW,293,3.0,8.0,49,0.00,,,0.00,,2013-01-09 06:11:00,
2013-01-08 23:22:00,46.0,25.0,30.08,East,80,4.0,8.0,44,0.00,,,0.00,,2013-01-09 06:22:00,
2013-01-08 23:32:00,47.0,26.0,30.09,East,82,0.0,7.0,44,0.00,,,0.00,,2013-01-09 06:32:00,
2013-01-08 23:42:00,47.0,26.0,30.09,East,82,0.0,7.0,44,0.00,,,0.00,,2013-01-09 06:42:00,
2013-01-08 23:52:00,46.0,25.0,30.08,East,80,3.0,8.0,43,0.00,,,0.00,,2013-01-09 06:52:00,